Station Historical Data
Daily Summary for May 24, 2017 Units:  English    Metric   Both
Next Day »
Daily Weekly Monthly Yearly Custom
  High: Low: Average:
Temperature: 82.6 °F 60.4 °F 70.8 °F
Dew Point: 56.1 °F 33.5 °F 49 °F
Humidity: 68% 33% 47%
Wind Speed: 13.0mph 0.0mph 2.8mph
Wind Gust: 18.0mph - -
Wind- - SSE
Pressure: 29.85 in 29.63 in -
Precipitation: 0.00 in    
Historical Graphs
 
 
Tabular Data for May 24, 2017
Time Temperature Dew Point Pressure Wind Wind Speed Wind Gust Humidity Rainfall Rate (Hourly) solar Conditions
00:00 69.9 °F 53.0 °F 29.85 in ESE 2.0 mph 8.0 mph 55% 0.00 in 0.00 W/m2
00:05 69.8 °F 53.4 °F 29.85 in Calm   6.0 mph 56% 0.00 in 0.00 W/m2
00:10 69.7 °F 53.3 °F 29.84 in ESE 5.0 mph 6.0 mph 56% 0.00 in 0.00 W/m2
00:15 69.6 °F 53.2 °F 29.84 in ESE 1.0 mph 11.0 mph 56% 0.00 in 0.00 W/m2
00:20 69.5 °F 53.1 °F 29.84 in Calm   8.0 mph 56% 0.00 in 0.00 W/m2
00:25 69.4 °F 53.0 °F 29.84 in East 1.0 mph 7.0 mph 56% 0.00 in 0.00 W/m2
00:30 69.3 °F 53.0 °F 29.84 in Calm   7.0 mph 56% 0.00 in 0.00 W/m2
00:35 69.1 °F 52.8 °F 29.84 in Calm   7.0 mph 56% 0.00 in 0.00 W/m2
00:40 69.0 °F 52.7 °F 29.83 in ESE 5.0 mph 6.0 mph 56% 0.00 in 0.00 W/m2
00:46 68.9 °F 52.6 °F 29.83 in East 6.0 mph 8.0 mph 56% 0.00 in 0.00 W/m2
00:51 68.8 °F 52.5 °F 29.83 in ESE 4.0 mph 8.0 mph 56% 0.00 in 0.00 W/m2
00:56 68.8 °F 52.5 °F 29.83 in East 4.0 mph 7.0 mph 56% 0.00 in 0.00 W/m2
01:01 68.7 °F 52.4 °F 29.83 in East 1.0 mph 9.0 mph 56% 0.00 in 0.00 W/m2
01:06 68.7 °F 52.4 °F 29.83 in East 4.0 mph 8.0 mph 56% 0.00 in 0.00 W/m2
01:11 68.6 °F 52.3 °F 29.83 in Calm   9.0 mph 56% 0.00 in 0.00 W/m2
01:16 68.6 °F 52.3 °F 29.83 in Calm   7.0 mph 56% 0.00 in 0.00 W/m2
01:21 68.5 °F 52.2 °F 29.83 in Calm   2.0 mph 56% 0.00 in 0.00 W/m2
01:26 68.5 °F 52.2 °F 29.82 in ESE 2.0 mph 9.0 mph 56% 0.00 in 0.00 W/m2
01:31 68.4 °F 52.1 °F 29.82 in East 5.0 mph 8.0 mph 56% 0.00 in 0.00 W/m2
01:36 68.4 °F 52.1 °F 29.82 in SE 5.0 mph 8.0 mph 56% 0.00 in 0.00 W/m2
01:41 68.4 °F 51.6 °F 29.82 in East 1.0 mph 4.0 mph 55% 0.00 in 0.00 W/m2
01:46 68.3 °F 51.5 °F 29.82 in Calm   9.0 mph 55% 0.00 in 0.00 W/m2
01:51 68.3 °F 51.0 °F 29.82 in ESE 1.0 mph 6.0 mph 54% 0.00 in 0.00 W/m2
01:56 68.3 °F 51.5 °F 29.81 in ESE 5.0 mph 6.0 mph 55% 0.00 in 0.00 W/m2
02:01 68.3 °F 51.5 °F 29.81 in ESE 9.0 mph 13.0 mph 55% 0.00 in 0.00 W/m2
02:06 68.2 °F 51.4 °F 29.81 in East 1.0 mph 12.0 mph 55% 0.00 in 0.00 W/m2
02:11 68.2 °F 51.4 °F 29.81 in East 8.0 mph 9.0 mph 55% 0.00 in 0.00 W/m2
02:16 68.2 °F 51.4 °F 29.81 in ESE 7.0 mph 9.0 mph 55% 0.00 in 0.00 W/m2
02:21 68.1 °F 51.3 °F 29.81 in ESE 2.0 mph 8.0 mph 55% 0.00 in 0.00 W/m2
02:26 68.1 °F 51.3 °F 29.81 in ESE 1.0 mph 12.0 mph 55% 0.00 in 0.00 W/m2
02:31 68.0 °F 51.2 °F 29.81 in ESE 2.0 mph 6.0 mph 55% 0.00 in 0.00 W/m2
02:36 67.9 °F 51.2 °F 29.81 in ESE 5.0 mph 7.0 mph 55% 0.00 in 0.00 W/m2
02:41 67.8 °F 51.1 °F 29.81 in East 5.0 mph 8.0 mph 55% 0.00 in 0.00 W/m2
02:47 67.7 °F 51.0 °F 29.81 in ESE 7.0 mph 7.0 mph 55% 0.00 in 0.00 W/m2
02:52 67.7 °F 51.0 °F 29.81 in ESE 5.0 mph 8.0 mph 55% 0.00 in 0.00 W/m2
02:57 67.6 °F 51.4 °F 29.80 in East 5.0 mph 9.0 mph 56% 0.00 in 0.00 W/m2
03:02 67.4 °F 50.7 °F 29.80 in ESE 11.0 mph 11.0 mph 55% 0.00 in 0.00 W/m2
03:07 67.3 °F 50.6 °F 29.80 in ESE 1.0 mph 5.0 mph 55% 0.00 in 0.00 W/m2
03:12 67.2 °F 50.5 °F 29.80 in East 5.0 mph 5.0 mph 55% 0.00 in 0.00 W/m2
03:17 67.1 °F 50.4 °F 29.80 in East 2.0 mph 6.0 mph 55% 0.00 in 0.00 W/m2
03:22 67.0 °F 50.8 °F 29.79 in Calm   13.0 mph 56% 0.00 in 0.00 W/m2
03:27 66.9 °F 50.7 °F 29.80 in East 4.0 mph 4.0 mph 56% 0.00 in 0.00 W/m2
03:32 66.9 °F 50.7 °F 29.79 in East 6.0 mph 14.0 mph 56% 0.00 in 0.00 W/m2
03:37 66.8 °F 50.1 °F 29.79 in East 4.0 mph 14.0 mph 55% 0.00 in 0.00 W/m2
03:42 66.8 °F 50.6 °F 29.79 in East 5.0 mph 6.0 mph 56% 0.00 in 0.00 W/m2
03:43 66.8 °F 50.6 °F 29.79 in ESE 2.0 mph 14.0 mph 56% 0.00 in 0.00 W/m2
03:48 66.7 °F 50.0 °F 29.79 in ESE 1.0 mph 6.0 mph 55% 0.00 in 0.00 W/m2
03:53 66.8 °F 50.1 °F 29.79 in Calm   7.0 mph 55% 0.00 in 0.00 W/m2
03:58 66.7 °F 49.5 °F 29.79 in ESE 2.0 mph 14.0 mph 54% 0.00 in 0.00 W/m2
04:03 66.7 °F 50.0 °F 29.78 in ESE 1.0 mph 7.0 mph 55% 0.00 in 0.00 W/m2
04:08 66.8 °F 50.1 °F 29.78 in ESE 6.0 mph 9.0 mph 55% 0.00 in 0.00 W/m2
04:13 66.7 °F 50.0 °F 29.78 in Calm   12.0 mph 55% 0.00 in 0.00 W/m2
04:18 66.7 °F 50.0 °F 29.78 in ESE 1.0 mph 14.0 mph 55% 0.00 in 0.00 W/m2
04:23 66.6 °F 50.0 °F 29.78 in Calm   5.0 mph 55% 0.00 in 0.00 W/m2
04:28 66.6 °F 50.0 °F 29.78 in East 11.0 mph 12.0 mph 55% 0.00 in 0.00 W/m2
04:33 66.5 °F 49.8 °F 29.78 in East 1.0 mph 18.0 mph 55% 0.00 in 0.00 W/m2
04:38 66.5 °F 50.3 °F 29.78 in Calm   12.0 mph 56% 0.00 in 0.00 W/m2
04:43 66.4 °F 49.8 °F 29.77 in ESE 8.0 mph 13.0 mph 55% 0.00 in 0.00 W/m2
04:48 66.3 °F 50.2 °F 29.77 in Calm   13.0 mph 56% 0.00 in 0.00 W/m2
04:53 66.1 °F 50.0 °F 29.77 in East 1.0 mph 14.0 mph 56% 0.00 in 0.00 W/m2
04:58 66.1 °F 50.0 °F 29.77 in ESE 5.0 mph 13.0 mph 56% 0.00 in 0.00 W/m2
05:03 66.0 °F 49.9 °F 29.77 in ESE 1.0 mph 11.0 mph 56% 0.00 in 0.00 W/m2
05:08 65.9 °F 50.2 °F 29.77 in Calm   7.0 mph 57% 0.00 in 0.00 W/m2
05:13 65.9 °F 49.8 °F 29.77 in East 4.0 mph 6.0 mph 56% 0.00 in 0.00 W/m2
05:18 65.8 °F 50.2 °F 29.77 in Calm   4.0 mph 57% 0.00 in 0.00 W/m2
05:23 65.7 °F 49.6 °F 29.76 in East 1.0 mph 2.0 mph 56% 0.00 in 0.00 W/m2
05:28 65.6 °F 49.5 °F 29.76 in ESE 1.0 mph 4.0 mph 56% 0.00 in 0.00 W/m2
05:33 65.5 °F 49.4 °F 29.76 in Calm   6.0 mph 56% 0.00 in 0.00 W/m2
05:38 65.4 °F 49.3 °F 29.76 in Calm   4.0 mph 56% 0.00 in 0.00 W/m2
05:43 65.3 °F 49.2 °F 29.76 in Calm   4.0 mph 56% 0.00 in 5.00 W/m2
05:49 65.3 °F 49.7 °F 29.76 in Calm   4.0 mph 57% 0.00 in 7.00 W/m2
05:54 65.2 °F 49.1 °F 29.76 in ESE 2.0 mph 2.0 mph 56% 0.00 in 11.00 W/m2
05:59 65.1 °F 49.5 °F 29.76 in ESE 1.0 mph 5.0 mph 57% 0.00 in 12.00 W/m2
06:04 65.1 °F 49.5 °F 29.76 in East 1.0 mph 6.0 mph 57% 0.00 in 16.00 W/m2
06:09 65.0 °F 49.4 °F 29.76 in ESE 1.0 mph 7.0 mph 57% 0.00 in 19.00 W/m2
06:14 65.0 °F 49.4 °F 29.76 in Calm   8.0 mph 57% 0.00 in 25.00 W/m2
06:19 65.0 °F 49.4 °F 29.76 in Calm   6.0 mph 57% 0.00 in 33.00 W/m2
06:24 65.0 °F 49.4 °F 29.76 in Calm   7.0 mph 57% 0.00 in 40.00 W/m2
06:29 64.9 °F 49.3 °F 29.76 in ESE 2.0 mph 7.0 mph 57% 0.00 in 53.00 W/m2
06:34 64.9 °F 49.8 °F 29.76 in Calm   7.0 mph 58% 0.00 in 67.00 W/m2
06:39 64.9 °F 50.2 °F 29.76 in East 4.0 mph 7.0 mph 59% 0.00 in 81.00 W/m2
06:44 64.9 °F 50.2 °F 29.76 in East 1.0 mph 8.0 mph 59% 0.00 in 97.00 W/m2
06:49 64.8 °F 50.6 °F 29.76 in Calm   8.0 mph 60% 0.00 in 114.00 W/m2
06:54 64.7 °F 50.1 °F 29.76 in East 5.0 mph 7.0 mph 59% 0.00 in 128.00 W/m2
06:59 64.7 °F 50.1 °F 29.76 in ESE 1.0 mph 7.0 mph 59% 0.00 in 149.00 W/m2
07:04 64.6 °F 50.9 °F 29.76 in ESE 1.0 mph 9.0 mph 61% 0.00 in 169.00 W/m2
07:09 64.6 °F 50.9 °F 29.76 in ESE 1.0 mph 7.0 mph 61% 0.00 in 190.00 W/m2
07:14 64.5 °F 50.8 °F 29.76 in East 4.0 mph 8.0 mph 61% 0.00 in 209.00 W/m2
07:24 64.5 °F 50.8 °F 29.76 in East 4.0 mph 8.0 mph 61% 0.00 in 251.00 W/m2
07:25 64.5 °F 50.8 °F 29.76 in ESE 2.0 mph 8.0 mph 61% 0.00 in 255.00 W/m2
07:30 64.5 °F 51.2 °F 29.77 in ESE 4.0 mph 8.0 mph 62% 0.00 in 276.00 W/m2
07:35 64.6 °F 51.3 °F 29.77 in Calm   9.0 mph 62% 0.00 in 294.00 W/m2
07:40 64.6 °F 51.7 °F 29.76 in ESE 5.0 mph 7.0 mph 63% 0.00 in 309.00 W/m2
07:45 64.6 °F 51.7 °F 29.76 in Calm   7.0 mph 63% 0.00 in 325.00 W/m2
07:50 64.7 °F 51.8 °F 29.76 in ESE 4.0 mph 8.0 mph 63% 0.00 in 341.00 W/m2
07:55 64.8 °F 52.3 °F 29.76 in East 4.0 mph 6.0 mph 64% 0.00 in 359.00 W/m2
08:00 64.9 °F 52.9 °F 29.76 in ESE 6.0 mph 8.0 mph 65% 0.00 in 378.00 W/m2
08:05 65.0 °F 53.0 °F 29.76 in ESE 6.0 mph 7.0 mph 65% 0.00 in 388.00 W/m2
08:10 65.2 °F 52.7 °F 29.76 in ESE 1.0 mph 8.0 mph 64% 0.00 in 406.00 W/m2
08:15 65.3 °F 53.2 °F 29.76 in ESE 2.0 mph 5.0 mph 65% 0.00 in 422.00 W/m2
08:20 65.5 °F 53.4 °F 29.76 in ESE 1.0 mph 6.0 mph 65% 0.00 in 436.00 W/m2
08:25 65.7 °F 54.0 °F 29.76 in Calm   5.0 mph 66% 0.00 in 455.00 W/m2
08:30 65.9 °F 54.2 °F 29.76 in ESE 2.0 mph 4.0 mph 66% 0.00 in 471.00 W/m2
08:35 66.1 °F 54.8 °F 29.76 in Calm   4.0 mph 67% 0.00 in 489.00 W/m2
08:40 66.4 °F 55.5 °F 29.76 in ESE 1.0 mph 5.0 mph 68% 0.00 in 503.00 W/m2
08:46 66.6 °F 55.7 °F 29.76 in Calm   4.0 mph 68% 0.00 in 522.00 W/m2
08:51 66.9 °F 55.6 °F 29.76 in ESE 4.0 mph 5.0 mph 67% 0.00 in 534.00 W/m2
08:56 67.1 °F 55.8 °F 29.76 in ESE 1.0 mph 6.0 mph 67% 0.00 in 552.00 W/m2
09:01 67.4 °F 55.7 °F 29.76 in Calm   4.0 mph 66% 0.00 in 568.00 W/m2
09:06 67.7 °F 55.5 °F 29.76 in Calm   4.0 mph 65% 0.00 in 582.00 W/m2
09:11 68.0 °F 55.8 °F 29.76 in ESE 1.0 mph 5.0 mph 65% 0.00 in 598.00 W/m2
09:16 68.3 °F 56.1 °F 29.76 in Calm   2.0 mph 65% 0.00 in 615.00 W/m2
09:21 68.6 °F 55.5 °F 29.76 in Calm   4.0 mph 63% 0.00 in 631.00 W/m2
09:26 68.9 °F 54.5 °F 29.76 in ESE 5.0 mph 5.0 mph 60% 0.00 in 643.00 W/m2
09:31 69.2 °F 52.8 °F 29.76 in Calm   5.0 mph 56% 0.00 in 659.00 W/m2
09:36 69.5 °F 53.1 °F 29.76 in ESE 1.0 mph 2.0 mph 56% 0.00 in 673.00 W/m2
09:41 69.8 °F 53.4 °F 29.76 in Calm   4.0 mph 56% 0.00 in 689.00 W/m2
09:48 70.2 °F 51.2 °F 29.76 in Calm     51% 0.00 in 714.00 W/m2
09:53 70.7 °F 49.5 °F 29.75 in Calm     47% 0.00 in 729.00 W/m2
09:58 71.5 °F 49.1 °F 29.76 in Calm     45% 0.00 in 735.00 W/m2
10:03 72.1 °F 48.4 °F 29.76 in Calm     43% 0.00 in 756.00 W/m2
10:08 72.5 °F 49.4 °F 29.76 in ESE 1.0 mph 1.0 mph 44% 0.00 in 714.00 W/m2
10:13 73.1 °F 51.7 °F 29.75 in Calm   6.0 mph 47% 0.00 in 663.00 W/m2
10:18 73.7 °F 51.1 °F 29.75 in Calm   2.0 mph 45% 0.00 in 737.00 W/m2
10:23 74.2 °F 51.5 °F 29.75 in WSW 1.0 mph 1.0 mph 45% 0.00 in 765.00 W/m2
10:28 74.6 °F 50.7 °F 29.75 in Calm     43% 0.00 in 708.00 W/m2
10:33 75.0 °F 51.0 °F 29.75 in Calm   3.0 mph 43% 0.00 in 773.00 W/m2
10:38 75.4 °F 50.7 °F 29.75 in Calm   2.0 mph 42% 0.00 in 810.00 W/m2
10:43 75.7 °F 51.0 °F 29.75 in Calm   1.0 mph 42% 0.00 in 819.00 W/m2
10:48 76.0 °F 51.3 °F 29.75 in WNW 1.0 mph 2.0 mph 42% 0.00 in 842.00 W/m2
10:53 76.3 °F 51.5 °F 29.75 in Calm   2.0 mph 42% 0.00 in 874.00 W/m2
10:56 76.5 °F 48.3 °F 29.75 in Calm   3.0 mph 37% 0.00 in 858.00 W/m2
11:01 76.7 °F 49.2 °F 29.75 in Calm   10.0 mph 38% 0.00 in 858.00 W/m2
11:06 77.0 °F 48.0 °F 29.75 in Calm   3.0 mph 36% 0.00 in 840.00 W/m2
11:11 77.2 °F 49.7 °F 29.75 in WSW 1.0 mph 2.0 mph 38% 0.00 in 793.00 W/m2
11:16 77.4 °F 48.4 °F 29.75 in Calm   3.0 mph 36% 0.00 in 751.00 W/m2
11:21 77.5 °F 49.2 °F 29.75 in Calm   2.0 mph 37% 0.00 in 802.00 W/m2
11:26 77.5 °F 52.0 °F 29.74 in Calm   8.0 mph 41% 0.00 in 819.00 W/m2
11:31 77.7 °F 51.5 °F 29.74 in Calm   2.0 mph 40% 0.00 in 840.00 W/m2
11:36 77.7 °F 52.8 °F 29.74 in Calm   2.0 mph 42% 0.00 in 847.00 W/m2
11:41 77.8 °F 51.6 °F 29.74 in Calm   2.0 mph 40% 0.00 in 888.00 W/m2
11:46 77.9 °F 53.0 °F 29.74 in Calm   2.0 mph 42% 0.00 in 911.00 W/m2
11:51 78.1 °F 54.4 °F 29.74 in SSW 1.0 mph 8.0 mph 44% 0.00 in 925.00 W/m2
11:56 78.3 °F 54.0 °F 29.73 in South 7.0 mph 9.0 mph 43% 0.00 in 856.00 W/m2
12:01 78.6 °F 54.3 °F 29.73 in Calm   8.0 mph 43% 0.00 in 893.00 W/m2
12:06 79.0 °F 52.6 °F 29.73 in SSW 7.0 mph 9.0 mph 40% 0.00 in 916.00 W/m2
12:11 79.4 °F 53.7 °F 29.73 in SW 3.0 mph 7.0 mph 41% 0.00 in 930.00 W/m2
12:16 79.7 °F 52.6 °F 29.73 in SW 1.0 mph 8.0 mph 39% 0.00 in 932.00 W/m2
12:21 80.2 °F 53.0 °F 29.73 in Calm   9.0 mph 39% 0.00 in 942.00 W/m2
12:26 80.4 °F 51.8 °F 29.73 in West 1.0 mph 10.0 mph 37% 0.00 in 947.00 W/m2
12:31 80.4 °F 53.9 °F 29.73 in SSW 3.0 mph 10.0 mph 40% 0.00 in 956.00 W/m2
12:36 80.6 °F 54.1 °F 29.73 in West 3.0 mph 10.0 mph 40% 0.00 in 958.00 W/m2
12:41 80.7 °F 50.5 °F 29.73 in SW 6.0 mph 9.0 mph 35% 0.00 in 960.00 W/m2
12:46 81.1 °F 53.8 °F 29.73 in Calm   9.0 mph 39% 0.00 in 954.00 W/m2
12:51 81.3 °F 53.3 °F 29.73 in SW 1.0 mph 12.0 mph 38% 0.00 in 954.00 W/m2
12:56 81.3 °F 54.7 °F 29.72 in SW 3.0 mph 11.0 mph 40% 0.00 in 956.00 W/m2
13:01 81.5 °F 54.2 °F 29.72 in Calm   3.0 mph 39% 0.00 in 962.00 W/m2
13:06 81.6 °F 52.8 °F 29.72 in SW 6.0 mph 10.0 mph 37% 0.00 in 963.00 W/m2
13:11 81.4 °F 53.4 °F 29.72 in Calm   9.0 mph 38% 0.00 in 962.00 W/m2
13:16 81.4 °F 52.7 °F 29.72 in Calm   10.0 mph 37% 0.00 in 963.00 W/m2
13:21 81.4 °F 51.9 °F 29.72 in WSW 8.0 mph 10.0 mph 36% 0.00 in 962.00 W/m2
13:26 81.6 °F 49.7 °F 29.72 in SSW 5.0 mph 11.0 mph 33% 0.00 in 962.00 W/m2
13:31 82.0 °F 52.4 °F 29.72 in South 8.0 mph 9.0 mph 36% 0.00 in 956.00 W/m2
13:36 82.5 °F 52.1 °F 29.72 in SW 9.0 mph 11.0 mph 35% 0.00 in 953.00 W/m2
13:41 82.5 °F 50.5 °F 29.71 in WSW 3.0 mph 11.0 mph 33% 0.00 in 953.00 W/m2
13:46 82.0 °F 52.4 °F 29.71 in Calm     36% 0.00 in 947.00 W/m2
13:51 81.9 °F 52.3 °F 29.71 in WSW 7.0 mph 13.0 mph 36% 0.00 in 944.00 W/m2
13:56 81.7 °F 50.6 °F 29.71 in WSW 5.0 mph 12.0 mph 34% 0.00 in 942.00 W/m2
14:01 81.9 °F 51.6 °F 29.71 in Calm   10.0 mph 35% 0.00 in 937.00 W/m2
14:06 82.3 °F 51.2 °F 29.71 in Calm   1.0 mph 34% 0.00 in 935.00 W/m2
14:11 82.6 °F 52.2 °F 29.71 in SW 5.0 mph 12.0 mph 35% 0.00 in 926.00 W/m2
14:16 82.4 °F 52.8 °F 29.70 in SSW 13.0 mph 13.0 mph 36% 0.00 in 923.00 W/m2
14:21 82.4 °F 52.0 °F 29.70 in South 7.0 mph 16.0 mph 35% 0.00 in 911.00 W/m2
14:26 82.6 °F 51.4 °F 29.70 in South 1.0 mph 15.0 mph 34% 0.00 in 905.00 W/m2
14:31 82.6 °F 51.4 °F 29.70 in WSW 2.0 mph 14.0 mph 34% 0.00 in 900.00 W/m2
14:36 82.2 °F 52.6 °F 29.70 in Calm     36% 0.00 in 895.00 W/m2
14:41 81.9 °F 52.3 °F 29.70 in SW 4.0 mph 15.0 mph 36% 0.00 in 889.00 W/m2
14:56 80.9 °F 50.7 °F 29.69 in West 1.0 mph 14.0 mph 35% 0.00 in 872.00 W/m2
15:01 80.1 °F 50.8 °F 29.69 in WSW 2.0 mph 13.0 mph 36% 0.00 in 798.00 W/m2
15:06 79.7 °F 50.4 °F 29.69 in West 8.0 mph 10.0 mph 36% 0.00 in 940.00 W/m2
15:11 79.5 °F 50.2 °F 29.69 in South 10.0 mph 13.0 mph 36% 0.00 in 911.00 W/m2
15:16 79.5 °F 49.5 °F 29.69 in Calm   12.0 mph 35% 0.00 in 860.00 W/m2
15:21 79.6 °F 49.6 °F 29.69 in SSW 5.0 mph 14.0 mph 35% 0.00 in 821.00 W/m2
15:26 79.7 °F 49.7 °F 29.69 in South 1.0 mph 12.0 mph 35% 0.00 in 821.00 W/m2
15:31 79.6 °F 51.1 °F 29.69 in SW 4.0 mph 12.0 mph 37% 0.00 in 812.00 W/m2
15:36 79.4 °F 50.2 °F 29.69 in SW 10.0 mph 14.0 mph 36% 0.00 in 765.00 W/m2
15:41 79.2 °F 50.0 °F 29.69 in SSW 5.0 mph 14.0 mph 36% 0.00 in 747.00 W/m2
15:46 78.9 °F 50.4 °F 29.68 in SSW 8.0 mph 11.0 mph 37% 0.00 in 682.00 W/m2
15:51 78.7 °F 50.3 °F 29.68 in Calm   12.0 mph 37% 0.00 in 668.00 W/m2
15:56 78.5 °F 51.5 °F 29.68 in SW 2.0 mph 11.0 mph 39% 0.00 in 733.00 W/m2
16:01 78.5 °F 51.5 °F 29.68 in Calm   12.0 mph 39% 0.00 in 719.00 W/m2
16:06 78.4 °F 50.0 °F 29.68 in Calm   12.0 mph 37% 0.00 in 701.00 W/m2
16:11 78.3 °F 49.2 °F 29.67 in Calm   11.0 mph 36% 0.00 in 687.00 W/m2
16:16 78.0 °F 50.4 °F 29.67 in WSW 1.0 mph 1.0 mph 38% 0.00 in 677.00 W/m2
16:21 77.8 °F 50.2 °F 29.67 in Calm   1.0 mph 38% 0.00 in 661.00 W/m2
16:26 77.7 °F 49.4 °F 29.67 in SW 1.0 mph 9.0 mph 37% 0.00 in 642.00 W/m2
16:31 77.5 °F 49.2 °F 29.67 in Calm   11.0 mph 37% 0.00 in 640.00 W/m2
16:36 77.4 °F 49.1 °F 29.67 in SW 6.0 mph 9.0 mph 37% 0.00 in 628.00 W/m2
16:41 77.2 °F 49.7 °F 29.67 in Calm   11.0 mph 38% 0.00 in 594.00 W/m2
16:46 76.8 °F 49.3 °F 29.66 in SW 5.0 mph 11.0 mph 38% 0.00 in 589.00 W/m2
16:51 76.6 °F 50.5 °F 29.66 in SW 6.0 mph 11.0 mph 40% 0.00 in 587.00 W/m2
16:56 76.4 °F 49.6 °F 29.66 in Calm   11.0 mph 39% 0.00 in 575.00 W/m2
17:01 76.4 °F 50.3 °F 29.66 in SW 1.0 mph 1.0 mph 40% 0.00 in 548.00 W/m2
17:06 76.3 °F 50.2 °F 29.66 in WSW 1.0 mph 2.0 mph 40% 0.00 in 499.00 W/m2
17:11 76.2 °F 50.1 °F 29.66 in SW 4.0 mph 5.0 mph 40% 0.00 in 457.00 W/m2
17:16 76.2 °F 50.8 °F 29.66 in SSW 5.0 mph 5.0 mph 41% 0.00 in 485.00 W/m2
17:21 76.2 °F 50.8 °F 29.66 in Calm     41% 0.00 in 512.00 W/m2
17:26 76.2 °F 50.8 °F 29.66 in South 8.0 mph 8.0 mph 41% 0.00 in 513.00 W/m2
17:31 76.1 °F 50.0 °F 29.66 in SSW 9.0 mph 12.0 mph 40% 0.00 in 469.00 W/m2
17:36 76.1 °F 50.7 °F 29.66 in WSW 8.0 mph 10.0 mph 41% 0.00 in 471.00 W/m2
17:41 76.0 °F 50.6 °F 29.65 in Calm     41% 0.00 in 443.00 W/m2
17:46 75.9 °F 50.5 °F 29.66 in Calm     41% 0.00 in 427.00 W/m2
17:48 75.9 °F 51.2 °F 29.65 in Calm     42% 0.00 in 417.00 W/m2
17:53 75.7 °F 51.0 °F 29.65 in Calm   3.0 mph 42% 0.00 in 422.00 W/m2
17:58 75.6 °F 51.5 °F 29.65 in SSW 1.0 mph 8.0 mph 43% 0.00 in 408.00 W/m2
18:03 75.5 °F 49.5 °F 29.65 in Calm   10.0 mph 40% 0.00 in 381.00 W/m2
18:08 75.4 °F 50.1 °F 29.64 in Calm   8.0 mph 41% 0.00 in 346.00 W/m2
18:13 75.2 °F 48.6 °F 29.64 in Calm   12.0 mph 39% 0.00 in 322.00 W/m2
18:18 75.0 °F 49.1 °F 29.64 in Calm   8.0 mph 40% 0.00 in 299.00 W/m2
18:23 74.9 °F 48.3 °F 29.64 in South 5.0 mph 10.0 mph 39% 0.00 in 246.00 W/m2
18:28 74.8 °F 48.9 °F 29.64 in Calm   13.0 mph 40% 0.00 in 301.00 W/m2
18:33 74.6 °F 48.0 °F 29.64 in South 1.0 mph 11.0 mph 39% 0.00 in 264.00 W/m2
18:38 74.4 °F 47.2 °F 29.64 in South 7.0 mph 12.0 mph 38% 0.00 in 160.00 W/m2
18:43 74.3 °F 46.4 °F 29.64 in SW 1.0 mph 8.0 mph 37% 0.00 in 211.00 W/m2
18:48 74.1 °F 46.9 °F 29.64 in Calm   9.0 mph 38% 0.00 in 213.00 W/m2
18:53 73.9 °F 46.7 °F 29.64 in Calm   7.0 mph 38% 0.00 in 188.00 W/m2
18:58 73.6 °F 47.1 °F 29.64 in SSW 1.0 mph 10.0 mph 39% 0.00 in 179.00 W/m2
19:03 73.4 °F 47.0 °F 29.64 in SSE 2.0 mph 9.0 mph 39% 0.00 in 162.00 W/m2
19:04 73.4 °F 47.0 °F 29.64 in Calm   9.0 mph 39% 0.00 in 156.00 W/m2
19:09 73.1 °F 47.4 °F 29.64 in South 7.0 mph 13.0 mph 40% 0.00 in 139.00 W/m2
19:14 72.9 °F 47.2 °F 29.64 in SSE 11.0 mph 11.0 mph 40% 0.00 in 113.00 W/m2
19:19 72.6 °F 47.6 °F 29.64 in SSE 4.0 mph 12.0 mph 41% 0.00 in 93.00 W/m2
19:24 72.3 °F 47.3 °F 29.64 in SSE 6.0 mph 14.0 mph 41% 0.00 in 69.00 W/m2
19:29 72.1 °F 47.8 °F 29.63 in South 12.0 mph 14.0 mph 42% 0.00 in 46.00 W/m2
19:34 71.8 °F 46.9 °F 29.64 in South 8.0 mph 14.0 mph 41% 0.00 in 25.00 W/m2
19:39 71.5 °F 46.6 °F 29.64 in Calm   10.0 mph 41% 0.00 in 18.00 W/m2
19:44 71.2 °F 46.3 °F 29.64 in Calm   2.0 mph 41% 0.00 in 16.00 W/m2
19:49 70.9 °F 46.0 °F 29.64 in Calm   2.0 mph 41% 0.00 in 14.00 W/m2
19:54 70.6 °F 45.8 °F 29.64 in South 5.0 mph 11.0 mph 41% 0.00 in 12.00 W/m2
20:00 70.3 °F 46.2 °F 29.65 in South 7.0 mph 12.0 mph 42% 0.00 in 11.00 W/m2
20:05 70.0 °F 45.9 °F 29.64 in South 6.0 mph 11.0 mph 42% 0.00 in 9.00 W/m2
20:10 69.6 °F 44.9 °F 29.64 in Calm   9.0 mph 41% 0.00 in 7.00 W/m2
20:15 69.3 °F 43.3 °F 29.64 in SSE 11.0 mph 16.0 mph 39% 0.00 in 5.00 W/m2
20:25 68.6 °F 44.0 °F 29.64 in South 7.0 mph 13.0 mph 41% 0.00 in 0.00 W/m2
20:30 68.2 °F 42.3 °F 29.64 in South 9.0 mph 15.0 mph 39% 0.00 in 0.00 W/m2
20:35 67.9 °F 40.7 °F 29.64 in South 7.0 mph 15.0 mph 37% 0.00 in 0.00 W/m2
20:40 67.6 °F 40.4 °F 29.64 in SSE 9.0 mph 13.0 mph 37% 0.00 in 0.00 W/m2
20:50 67.0 °F 41.2 °F 29.65 in South 8.0 mph 11.0 mph 39% 0.00 in 0.00 W/m2
20:55 66.7 °F 41.6 °F 29.65 in Calm   11.0 mph 40% 0.00 in 0.00 W/m2
21:00 66.5 °F 42.1 °F 29.65 in Calm   10.0 mph 41% 0.00 in 0.00 W/m2
21:05 66.2 °F 41.8 °F 29.66 in Calm   1.0 mph 41% 0.00 in 0.00 W/m2
21:10 66.0 °F 42.3 °F 29.66 in SSE 9.0 mph 9.0 mph 42% 0.00 in 0.00 W/m2
21:15 65.7 °F 42.0 °F 29.66 in Calm   8.0 mph 42% 0.00 in 0.00 W/m2
21:20 65.4 °F 41.1 °F 29.66 in Calm   10.0 mph 41% 0.00 in 0.00 W/m2
21:25 65.1 °F 40.2 °F 29.66 in SSE 5.0 mph 11.0 mph 40% 0.00 in 0.00 W/m2
21:30 64.8 °F 40.6 °F 29.66 in SSE 7.0 mph 10.0 mph 41% 0.00 in 0.00 W/m2
21:35 64.5 °F 40.3 °F 29.66 in SSE 7.0 mph 13.0 mph 41% 0.00 in 0.00 W/m2
21:40 64.1 °F 40.6 °F 29.66 in SE 11.0 mph 14.0 mph 42% 0.00 in 0.00 W/m2
21:45 63.9 °F 39.8 °F 29.66 in Calm   14.0 mph 41% 0.00 in 0.00 W/m2
21:50 63.6 °F 39.5 °F 29.66 in SSE 6.0 mph 10.0 mph 41% 0.00 in 0.00 W/m2
21:55 63.4 °F 38.7 °F 29.66 in SSE 9.0 mph 13.0 mph 40% 0.00 in 0.00 W/m2
22:00 63.1 °F 38.4 °F 29.66 in SSE 8.0 mph 10.0 mph 40% 0.00 in 0.00 W/m2
22:05 62.9 °F 38.9 °F 29.66 in SSE 6.0 mph 12.0 mph 41% 0.00 in 0.00 W/m2
22:10 62.7 °F 38.0 °F 29.66 in SSE 8.0 mph 13.0 mph 40% 0.00 in 0.00 W/m2
22:15 62.5 °F 37.9 °F 29.66 in SSE 8.0 mph 12.0 mph 40% 0.00 in 0.00 W/m2
22:20 62.2 °F 37.0 °F 29.66 in SSE 4.0 mph 13.0 mph 39% 0.00 in 0.00 W/m2
22:25 62.1 °F 36.2 °F 29.66 in SSE 8.0 mph 14.0 mph 38% 0.00 in 0.00 W/m2
22:27 62.0 °F 36.1 °F 29.66 in SSE 6.0 mph 11.0 mph 38% 0.00 in 0.00 W/m2
22:32 61.8 °F 36.6 °F 29.66 in SSE 5.0 mph 11.0 mph 39% 0.00 in 0.00 W/m2
22:37 61.7 °F 35.9 °F 29.65 in SE 5.0 mph 10.0 mph 38% 0.00 in 0.00 W/m2
22:42 61.6 °F 36.4 °F 29.65 in Calm   16.0 mph 39% 0.00 in 0.00 W/m2
22:47 61.4 °F 35.6 °F 29.65 in SSE 6.0 mph 10.0 mph 38% 0.00 in 0.00 W/m2
22:52 61.3 °F 36.2 °F 29.65 in SE 6.0 mph 13.0 mph 39% 0.00 in 0.00 W/m2
22:57 61.2 °F 35.4 °F 29.64 in SE 8.0 mph 11.0 mph 38% 0.00 in 0.00 W/m2
23:03 61.1 °F 35.3 °F 29.65 in SE 6.0 mph 9.0 mph 38% 0.00 in 0.00 W/m2
23:08 61.0 °F 35.2 °F 29.65 in SE 9.0 mph 10.0 mph 38% 0.00 in 0.00 W/m2
23:13 60.9 °F 34.5 °F 29.65 in SE 6.0 mph 14.0 mph 37% 0.00 in 0.00 W/m2
23:18 60.8 °F 33.7 °F 29.65 in SE 6.0 mph 11.0 mph 36% 0.00 in 0.00 W/m2
23:23 60.7 °F 34.3 °F 29.65 in SE 1.0 mph 11.0 mph 37% 0.00 in 0.00 W/m2
23:28 60.6 °F 33.5 °F 29.65 in Calm   1.0 mph 36% 0.00 in 0.00 W/m2
23:33 60.6 °F 34.2 °F 29.64 in Calm   1.0 mph 37% 0.00 in 0.00 W/m2
23:38 60.5 °F 34.8 °F 29.65 in Calm   1.0 mph 38% 0.00 in 0.00 W/m2
23:43 60.5 °F 35.4 °F 29.65 in Calm   1.0 mph 39% 0.00 in 0.00 W/m2
23:48 60.5 °F 36.7 °F 29.65 in Calm   1.0 mph 41% 0.00 in 0.00 W/m2
23:49 60.5 °F 36.1 °F 29.64 in Calm   11.0 mph 40% 0.00 in 0.00 W/m2
23:54 60.4 °F 36.6 °F 29.64 in SE 9.0 mph 11.0 mph 41% 0.00 in 0.00 W/m2
Foresthill Weather
 WU-history PHP script courtesy of   Juneau County Weather.
powered by Cumulus v1.9.3 (1059)
Ambient Weather VWS v14.00
Top Contact Website Map Copyright © 2007 - 2018 Foresthillweather.com Never base important decisions on this or any weather information obtained from the Internet